NOAA 16 DEB, 41126

Orbit data source: Space-Track

NOAA 16 DEB, 41126 is space debris in SSO originally from a launch on Thu, 21 Sep 2000 UTC launched from the Air Force Western Test Range (AFWTR). Debris objects in space refer to the collection of defunct objects orbiting the Earth. Examples of debris include non-operational satellites, rocket bodies, and fragments generated from explosions, collisions, or faulty payload assembly.

Loading next visibility...
Identifier
41126, 2000-055BH
Orbit
SSO
Country
Flag of USUS
Related business
Manufacturer
Unknown
Mission
Spacecraft
Bus & Motor
Unknown
Mass
Unknown
Launch date (UTC)
2000-09-21 (25 years ago)
Launch vehicle
Unknown
Launch site
Air Force Western Test Range (AFWTR)
Object type
Payload
Rocket body
Debris
Shape & HBR
Unknown shape, 0.1 m
Radar Cross Section
Small (<0.1 m²)

Expand to show TLE details & history
Last TLE update: 4 days ago

TLE from 4 days ago
0 NOAA 16 DEB
1 41126U 00055BH  25283.73627343  .00003725  00000-0  20106-2 0  9997
2 41126  98.7656 286.5575 0067089 346.4989  13.4386 14.12119647504109
Epoch: 2025-10-10T17:40Z
TLE epoch observation values (Epoch: 2025-10-10T17:40:14.024Z)
Latitude
-0.00003°
Longitude
1.92124°
Altitude
807.859 km
Speed
7.474 km/s
True Right ascension
19h 06m 13s
True Declination
0° 00' 00"
Sunlit
Object was in daylight at epoch
Visualization orbit readout
Latitude
Unknown
Longitude
Unknown
Altitude
Unknown
Speed
Unknown
Apparent Right ascension
Unknown
Apparent Declination
Unknown
Sunlit
N/A
Visualization observer readout
Local Sidereal Time
07:58:57
Azimuth
Unknown
Elevation
Unknown
Doppler factor
Unknown
Orbital elements
Apogee altitude
897.787 km
Perigee altitude
800.811 km
Semi-major axis
7,227.436 km
Eccentricity
0.00671
Inclination
98.7656°
RAAN
286.5575°
Arg. of periapsis
346.4989°
True anomaly
13.61874°
Mean anomaly
13.4386°
Eccentric anomaly
13.52852°
Mean motion
3.53237 °/min
Orbital period
101.91 mins
BSTAR
0.0020106
Loading maneuver chart data...
Computing Atmospheric mass density...
Loading historical data...
Loading historical data...
Loading historical data...
Loading historical data...
Loading historical data...
Loading historical data...
Loading historical data...

Documentation

Showing up to 5 results
|